CFG4AM EDDM-LGKR

Flight info

Callsign CFG4AM
Flight time 1h 39m
Altitude 35000
Route VAVOR3Q VAVOR M867 RADIZ DCT GIMIX DCT SABAD DCT SIRMI DCT TIKSA DCT RODON DCT LIMJA/N0377F190 N732 PITAS
Aircraft A320/M-SDFGHIJ1RWY/LB1

Departure

Time 2026-05-06 15:08
Airport Munich Airport (EDDM)

Arrival

Time 2026-05-06 16:48
Airport Corfu Ioannis Kapodistrias International Airport (LGKR)
Time Latitude Longitude Altitude Speed Heading
2026-05-06 14:47 48.35417 11.77670 1478 ft 0 kts 263°
2026-05-06 14:57 48.35418 11.77681 1478 ft 2 kts 263°
2026-05-06 14:57 48.35420 11.77704 1478 ft 2 kts 263°
2026-05-06 14:57 48.35421 11.77726 1478 ft 2 kts 263°
2026-05-06 14:58 48.35422 11.77740 1478 ft 1 kts 264°
2026-05-06 14:58 48.35428 11.77760 1478 ft 2 kts 218°
2026-05-06 14:58 48.35440 11.77768 1478 ft 0 kts 179°
2026-05-06 14:58 48.35447 11.77766 1478 ft 1 kts 173°
2026-05-06 14:59 48.35449 11.77766 1478 ft 0 kts 173°
2026-05-06 15:01 48.35432 11.77767 1478 ft 6 kts 184°
2026-05-06 15:01 48.35362 11.77756 1478 ft 14 kts 176°
2026-05-06 15:01 48.35257 11.77771 1479 ft 16 kts 174°
2026-05-06 15:01 48.35145 11.77789 1480 ft 16 kts 174°
2026-05-06 15:02 48.35032 11.77812 1480 ft 16 kts 173°
2026-05-06 15:02 48.34922 11.77831 1481 ft 16 kts 172°
2026-05-06 15:02 48.34819 11.77874 1481 ft 9 kts 174°
2026-05-06 15:02 48.34749 11.77885 1481 ft 11 kts 174°
2026-05-06 15:03 48.34669 11.77874 1481 ft 12 kts 231°
2026-05-06 15:03 48.34650 11.77732 1481 ft 15 kts 263°
2026-05-06 15:03 48.34637 11.77561 1482 ft 17 kts 263°
2026-05-06 15:03 48.34622 11.77367 1482 ft 19 kts 263°
2026-05-06 15:04 48.34605 11.77160 1483 ft 19 kts 264°
2026-05-06 15:04 48.34590 11.76960 1483 ft 19 kts 263°
2026-05-06 15:04 48.34575 11.76762 1484 ft 18 kts 264°
2026-05-06 15:04 48.34560 11.76574 1484 ft 17 kts 263°
2026-05-06 15:05 48.34547 11.76390 1484 ft 17 kts 264°
2026-05-06 15:05 48.34533 11.76213 1485 ft 17 kts 263°
2026-05-06 15:05 48.34520 11.76039 1486 ft 16 kts 264°
2026-05-06 15:05 48.34507 11.75872 1486 ft 13 kts 263°
2026-05-06 15:06 48.34457 11.75781 1486 ft 13 kts 175°
2026-05-06 15:06 48.34373 11.75826 1487 ft 13 kts 137°
2026-05-06 15:06 48.34331 11.75949 1486 ft 13 kts 112°
2026-05-06 15:06 48.34290 11.76093 1486 ft 16 kts 114°
2026-05-06 15:07 48.34240 11.76264 1486 ft 19 kts 114°
2026-05-06 15:07 48.34176 11.76429 1486 ft 17 kts 110°
2026-05-06 15:07 48.34192 11.76729 1485 ft 57 kts 84°
2026-05-06 15:07 48.34265 11.77678 1483 ft 122 kts 83°
2026-05-06 15:08 48.34385 11.79224 1507 ft 171 kts 82°
2026-05-06 15:08 48.34523 11.81010 1981 ft 176 kts 83°
2026-05-06 15:08 48.34655 11.82862 2578 ft 180 kts 83°
2026-05-06 15:08 48.34778 11.84778 3005 ft 190 kts 83°
2026-05-06 15:09 48.34925 11.86845 3339 ft 206 kts 83°
2026-05-06 15:09 48.35096 11.89070 3676 ft 223 kts 83°
2026-05-06 15:09 48.35292 11.91559 3955 ft 246 kts 82°
2026-05-06 15:09 48.35377 11.94125 4650 ft 251 kts 99°
2026-05-06 15:10 48.34689 11.96523 5421 ft 252 kts 130°
2026-05-06 15:10 48.33395 11.98264 6176 ft 253 kts 142°
2026-05-06 15:10 48.31975 11.99875 6899 ft 256 kts 143°
2026-05-06 15:10 48.30579 12.01436 7607 ft 259 kts 146°
2026-05-06 15:11 48.28946 12.02555 8251 ft 265 kts 163°
2026-05-06 15:11 48.27119 12.03293 8649 ft 282 kts 166°
2026-05-06 15:11 48.25149 12.04016 9008 ft 300 kts 167°
2026-05-06 15:11 48.23086 12.04782 9426 ft 314 kts 166°
2026-05-06 15:12 48.20937 12.05600 10124 ft 318 kts 166°
2026-05-06 15:12 48.18996 12.06352 10794 ft 320 kts 167°
2026-05-06 15:12 48.16842 12.07192 11493 ft 323 kts 167°
2026-05-06 15:12 48.14763 12.07997 12140 ft 326 kts 168°
2026-05-06 15:13 48.12528 12.08799 12832 ft 328 kts 169°
2026-05-06 15:13 48.10333 12.09563 13532 ft 329 kts 169°
2026-05-06 15:13 48.08141 12.10326 14206 ft 330 kts 169°
2026-05-06 15:13 48.05889 12.11112 14875 ft 330 kts 169°
2026-05-06 15:14 48.03632 12.11901 15556 ft 330 kts 169°
2026-05-06 15:14 48.01427 12.12673 16188 ft 331 kts 170°
2026-05-06 15:14 47.99173 12.13462 16810 ft 332 kts 170°
2026-05-06 15:14 47.96910 12.14253 17417 ft 332 kts 170°
2026-05-06 15:15 47.94687 12.15229 17987 ft 336 kts 162°
2026-05-06 15:15 47.92589 12.16788 18533 ft 342 kts 153°
2026-05-06 15:15 47.90645 12.18924 19000 ft 351 kts 147°
2026-05-06 15:15 47.88777 12.21244 19369 ft 358 kts 146°
2026-05-06 15:16 47.86880 12.23643 19817 ft 362 kts 146°
2026-05-06 15:16 47.84954 12.26079 20293 ft 365 kts 146°
2026-05-06 15:16 47.83012 12.28528 20754 ft 367 kts 146°
2026-05-06 15:16 47.81039 12.31007 21189 ft 371 kts 146°
2026-05-06 15:17 47.79098 12.33440 21617 ft 373 kts 146°
2026-05-06 15:17 47.77149 12.35881 22041 ft 376 kts 146°
2026-05-06 15:17 47.75127 12.38407 22457 ft 379 kts 145°
2026-05-06 15:17 47.73093 12.40945 22864 ft 382 kts 145°
2026-05-06 15:18 47.71421 12.43030 23198 ft 384 kts 145°
2026-05-06 15:18 47.69067 12.45944 23652 ft 387 kts 145°
2026-05-06 15:18 47.66991 12.48499 24026 ft 389 kts 145°
2026-05-06 15:18 47.64963 12.50998 24394 ft 392 kts 146°
2026-05-06 15:19 47.62768 12.53673 24772 ft 394 kts 147°
2026-05-06 15:19 47.60603 12.56090 25125 ft 395 kts 149°
2026-05-06 15:19 47.58380 12.58516 25481 ft 397 kts 149°
2026-05-06 15:19 47.56115 12.60984 25837 ft 399 kts 149°
2026-05-06 15:20 47.53857 12.63442 26175 ft 402 kts 149°
2026-05-06 15:20 47.51591 12.65907 26510 ft 404 kts 150°
2026-05-06 15:20 47.49301 12.68397 26837 ft 406 kts 150°
2026-05-06 15:20 47.47050 12.70841 27144 ft 408 kts 150°
2026-05-06 15:21 47.44771 12.73312 27448 ft 409 kts 150°
2026-05-06 15:21 47.42472 12.75804 27734 ft 412 kts 150°
2026-05-06 15:21 47.40165 12.78300 28009 ft 414 kts 151°
2026-05-06 15:21 47.37881 12.80769 28286 ft 416 kts 151°
2026-05-06 15:22 47.35519 12.83320 28563 ft 417 kts 151°
2026-05-06 15:22 47.33244 12.85776 28809 ft 419 kts 151°
2026-05-06 15:22 47.30983 12.88212 29056 ft 421 kts 151°
2026-05-06 15:22 47.28559 12.90821 29321 ft 423 kts 151°
2026-05-06 15:23 47.26369 12.93176 29551 ft 424 kts 151°
2026-05-06 15:23 47.23898 12.95830 29794 ft 426 kts 151°
2026-05-06 15:23 47.21508 12.98395 30043 ft 427 kts 151°
2026-05-06 15:23 47.19095 13.00981 30282 ft 429 kts 151°
2026-05-06 15:24 47.16676 13.03570 30517 ft 430 kts 151°
2026-05-06 15:24 47.14290 13.06122 30755 ft 431 kts 151°
2026-05-06 15:24 47.11854 13.08724 30974 ft 432 kts 151°
2026-05-06 15:24 47.09423 13.11316 31182 ft 433 kts 151°
2026-05-06 15:25 47.06972 13.13928 31405 ft 434 kts 151°
2026-05-06 15:25 47.04555 13.16499 31604 ft 435 kts 151°
2026-05-06 15:25 47.02557 13.18623 31754 ft 436 kts 151°
2026-05-06 15:25 46.99868 13.21480 31954 ft 437 kts 151°
2026-05-06 15:26 46.97424 13.24072 32141 ft 437 kts 151°
2026-05-06 15:26 46.94951 13.26693 32343 ft 437 kts 151°
2026-05-06 15:26 46.92467 13.29325 32583 ft 436 kts 151°
2026-05-06 15:26 46.90001 13.31932 32820 ft 435 kts 151°
2026-05-06 15:27 46.87531 13.34541 33079 ft 434 kts 151°
2026-05-06 15:27 46.85052 13.37155 33307 ft 434 kts 152°
2026-05-06 15:27 46.82588 13.39750 33480 ft 435 kts 151°
2026-05-06 15:27 46.80146 13.42318 33635 ft 435 kts 151°
2026-05-06 15:28 46.77671 13.44918 33810 ft 436 kts 151°
2026-05-06 15:28 46.75220 13.47490 33985 ft 436 kts 151°
2026-05-06 15:28 46.72705 13.50127 34145 ft 436 kts 151°
2026-05-06 15:28 46.70230 13.52716 34282 ft 437 kts 151°
2026-05-06 15:29 46.67784 13.55275 34413 ft 438 kts 151°
2026-05-06 15:29 46.65272 13.57898 34545 ft 438 kts 151°
2026-05-06 15:29 46.62796 13.60485 34660 ft 439 kts 151°
2026-05-06 15:29 46.60311 13.63077 34764 ft 441 kts 150°
2026-05-06 15:30 46.57903 13.65587 34874 ft 441 kts 151°
2026-05-06 15:30 46.52819 13.70877 34895 ft 442 kts 150°
2026-05-06 15:31 46.47881 13.76350 34897 ft 444 kts 149°
2026-05-06 15:31 46.42970 13.81818 34897 ft 443 kts 149°
2026-05-06 15:32 46.35593 13.90014 34897 ft 443 kts 149°
2026-05-06 15:32 46.30663 13.95477 34897 ft 444 kts 149°
2026-05-06 15:33 46.25770 14.00887 34897 ft 444 kts 149°
2026-05-06 15:33 46.20878 14.06285 34920 ft 444 kts 148°
2026-05-06 15:34 46.16037 14.11620 34951 ft 444 kts 148°
2026-05-06 15:34 46.11107 14.17037 34970 ft 444 kts 149°
2026-05-06 15:35 46.06185 14.22431 34980 ft 444 kts 149°
2026-05-06 15:35 46.01221 14.27856 34985 ft 444 kts 148°
2026-05-06 15:36 45.96309 14.33213 34987 ft 444 kts 149°
2026-05-06 15:36 45.91375 14.38582 34988 ft 444 kts 149°
2026-05-06 15:37 45.86643 14.43720 34987 ft 444 kts 149°
2026-05-06 15:37 45.81721 14.49053 34987 ft 445 kts 149°
2026-05-06 15:38 45.76764 14.54409 34987 ft 445 kts 149°
2026-05-06 15:38 45.71860 14.59696 34987 ft 445 kts 149°
2026-05-06 15:39 45.66855 14.65082 34987 ft 446 kts 149°
2026-05-06 15:39 45.61913 14.70387 34987 ft 446 kts 149°
2026-05-06 15:40 45.56976 14.75676 34987 ft 446 kts 149°
2026-05-06 15:40 45.52002 14.80994 34988 ft 446 kts 149°
2026-05-06 15:41 45.47046 14.86276 34987 ft 446 kts 149°
2026-05-06 15:41 45.42119 14.91717 34987 ft 448 kts 148°
2026-05-06 15:42 45.37226 14.97227 34987 ft 448 kts 148°
2026-05-06 15:42 45.32333 15.02715 34987 ft 449 kts 148°
2026-05-06 15:43 45.27438 15.08183 34987 ft 449 kts 148°
2026-05-06 15:43 45.22509 15.13672 34987 ft 450 kts 148°
2026-05-06 15:44 45.17620 15.19103 34988 ft 450 kts 148°
2026-05-06 15:44 45.12656 15.24604 34988 ft 450 kts 148°
2026-05-06 15:45 45.07760 15.30019 34987 ft 451 kts 148°
2026-05-06 15:45 45.02804 15.35486 34972 ft 451 kts 148°
2026-05-06 15:46 44.97862 15.40924 34956 ft 452 kts 148°
2026-05-06 15:46 44.92903 15.46372 34952 ft 453 kts 148°
2026-05-06 15:47 44.87912 15.51841 34952 ft 454 kts 149°
2026-05-06 15:47 44.82894 15.57328 34951 ft 455 kts 149°
2026-05-06 15:48 44.77885 15.62792 34952 ft 456 kts 149°
2026-05-06 15:48 44.72927 15.68190 34951 ft 456 kts 149°
2026-05-06 15:49 44.67897 15.73653 34951 ft 457 kts 149°
2026-05-06 15:49 44.62875 15.79092 34951 ft 458 kts 149°
2026-05-06 15:50 44.57830 15.84549 34952 ft 460 kts 150°
2026-05-06 15:50 44.52755 15.90023 34951 ft 461 kts 150°
2026-05-06 15:51 44.47664 15.95503 34949 ft 462 kts 150°
2026-05-06 15:51 44.42696 16.00838 34946 ft 462 kts 149°
2026-05-06 15:52 44.37565 16.06333 34948 ft 464 kts 150°
2026-05-06 15:52 44.32454 16.11800 34956 ft 464 kts 150°
2026-05-06 15:53 44.27354 16.17245 34967 ft 463 kts 150°
2026-05-06 15:53 44.22205 16.22726 34975 ft 464 kts 150°
2026-05-06 15:54 44.17098 16.28148 34979 ft 464 kts 150°
2026-05-06 15:54 44.11793 16.33304 34981 ft 460 kts 154°
2026-05-06 15:55 44.06437 16.38176 34981 ft 460 kts 154°
2026-05-06 15:55 44.01121 16.43002 34981 ft 460 kts 154°
2026-05-06 15:56 43.95758 16.47865 34981 ft 461 kts 154°
2026-05-06 15:56 43.90375 16.52735 34981 ft 461 kts 154°
2026-05-06 15:57 43.85020 16.57569 34981 ft 462 kts 153°
2026-05-06 15:57 43.79648 16.62409 34981 ft 462 kts 153°
2026-05-06 15:58 43.74252 16.67263 34984 ft 462 kts 154°
2026-05-06 15:58 43.68840 16.72119 34993 ft 462 kts 154°
2026-05-06 15:59 43.63467 16.76929 35000 ft 462 kts 154°
2026-05-06 15:59 43.58073 16.81748 35004 ft 462 kts 153°
2026-05-06 16:00 43.52692 16.86544 35008 ft 462 kts 153°
2026-05-06 16:00 43.47303 16.91337 35012 ft 462 kts 153°
2026-05-06 16:01 43.41904 16.96130 35018 ft 463 kts 153°
2026-05-06 16:01 43.36588 17.00840 35023 ft 463 kts 153°
2026-05-06 16:02 43.31200 17.05602 35028 ft 463 kts 153°
2026-05-06 16:02 43.25779 17.10382 35032 ft 464 kts 153°
2026-05-06 16:03 43.20359 17.15152 35035 ft 464 kts 153°
2026-05-06 16:03 43.14934 17.19919 35035 ft 464 kts 153°
2026-05-06 16:04 43.09523 17.24663 35035 ft 464 kts 153°
2026-05-06 16:04 43.04054 17.29472 35035 ft 466 kts 151°
2026-05-06 16:05 42.98886 17.34807 35035 ft 471 kts 144°
2026-05-06 16:05 42.93928 17.40662 35036 ft 472 kts 143°
2026-05-06 16:06 42.89006 17.46482 35036 ft 472 kts 143°
2026-05-06 16:06 42.84041 17.52330 35035 ft 472 kts 143°
2026-05-06 16:07 42.79062 17.58178 35035 ft 473 kts 143°
2026-05-06 16:07 42.74089 17.64005 35035 ft 474 kts 143°
2026-05-06 16:08 42.69072 17.69869 35034 ft 474 kts 144°
2026-05-06 16:08 42.64076 17.75696 35035 ft 475 kts 144°
2026-05-06 16:09 42.59069 17.81524 35035 ft 475 kts 144°
2026-05-06 16:09 42.54036 17.87367 35039 ft 476 kts 144°
2026-05-06 16:10 42.49008 17.93193 35044 ft 476 kts 144°
2026-05-06 16:10 42.43956 17.99034 35051 ft 477 kts 144°
2026-05-06 16:11 42.38917 18.04843 35057 ft 477 kts 143°
2026-05-06 16:11 42.33890 18.10633 35060 ft 477 kts 143°
2026-05-06 16:12 42.28820 18.16458 35061 ft 477 kts 143°
2026-05-06 16:12 42.23772 18.22243 35062 ft 477 kts 143°
2026-05-06 16:13 42.18707 18.28036 35062 ft 477 kts 143°
2026-05-06 16:13 42.13623 18.33836 35062 ft 477 kts 143°
2026-05-06 16:14 42.08562 18.39597 35062 ft 477 kts 143°
2026-05-06 16:14 42.03482 18.45369 35062 ft 477 kts 143°
2026-05-06 16:15 41.98410 18.51121 35061 ft 477 kts 143°
2026-05-06 16:15 41.93341 18.56853 35063 ft 477 kts 143°
2026-05-06 16:16 41.88263 18.62586 35062 ft 477 kts 143°
2026-05-06 16:16 41.83176 18.68317 35061 ft 477 kts 144°
2026-05-06 16:17 41.78099 18.74022 35062 ft 476 kts 144°
2026-05-06 16:17 41.73016 18.79723 35062 ft 476 kts 144°
2026-05-06 16:18 41.67931 18.85416 35062 ft 475 kts 144°
2026-05-06 16:18 41.62947 18.90983 35062 ft 474 kts 144°
2026-05-06 16:19 41.57854 18.96662 35062 ft 474 kts 144°
2026-05-06 16:19 41.52755 19.02325 35061 ft 474 kts 144°
2026-05-06 16:20 41.47455 19.07443 35062 ft 470 kts 152°
2026-05-06 16:20 41.41772 19.11659 35061 ft 466 kts 159°
2026-05-06 16:21 41.35831 19.14921 35062 ft 463 kts 164°
2026-05-06 16:21 41.29759 19.17860 35062 ft 463 kts 164°
2026-05-06 16:22 41.23689 19.20807 35062 ft 463 kts 164°
2026-05-06 16:22 41.17640 19.23746 35062 ft 463 kts 164°
2026-05-06 16:23 41.11606 19.26675 35062 ft 463 kts 164°
2026-05-06 16:23 41.05547 19.29610 35062 ft 463 kts 164°
2026-05-06 16:24 40.99520 19.32524 34998 ft 464 kts 163°
2026-05-06 16:24 40.96482 19.33992 34744 ft 462 kts 163°
2026-05-06 16:24 40.93446 19.35457 34492 ft 461 kts 163°
2026-05-06 16:25 40.90497 19.36880 34245 ft 459 kts 163°
2026-05-06 16:25 40.87450 19.38348 33989 ft 457 kts 163°
2026-05-06 16:25 40.84480 19.39776 33739 ft 456 kts 163°
2026-05-06 16:25 40.81514 19.41201 33470 ft 456 kts 164°
2026-05-06 16:26 40.78538 19.42628 33032 ft 457 kts 163°
2026-05-06 16:26 40.75545 19.44063 32428 ft 458 kts 163°
2026-05-06 16:26 40.72661 19.45446 31777 ft 458 kts 163°
2026-05-06 16:26 40.69624 19.46904 31308 ft 452 kts 163°
2026-05-06 16:27 40.66692 19.48308 30846 ft 447 kts 163°
2026-05-06 16:27 40.63768 19.49708 30382 ft 441 kts 164°
2026-05-06 16:27 40.60925 19.51066 29927 ft 437 kts 164°
2026-05-06 16:27 40.58018 19.52452 29449 ft 432 kts 163°
2026-05-06 16:28 40.55204 19.53790 28973 ft 428 kts 164°
2026-05-06 16:28 40.52438 19.55102 28502 ft 424 kts 164°
2026-05-06 16:28 40.49677 19.56411 28025 ft 420 kts 164°
2026-05-06 16:28 40.46938 19.57710 27552 ft 416 kts 164°
2026-05-06 16:29 40.44270 19.58973 27087 ft 413 kts 163°
2026-05-06 16:29 40.41552 19.60259 26604 ft 409 kts 163°
2026-05-06 16:29 40.38888 19.61519 26130 ft 406 kts 163°
2026-05-06 16:29 40.36251 19.62766 25654 ft 403 kts 163°
2026-05-06 16:30 40.33606 19.64016 25178 ft 401 kts 163°
2026-05-06 16:30 40.31844 19.64847 24861 ft 399 kts 163°
2026-05-06 16:30 40.28430 19.66457 24235 ft 395 kts 164°
2026-05-06 16:30 40.25860 19.67668 23765 ft 393 kts 164°
2026-05-06 16:31 40.23299 19.68872 23295 ft 390 kts 164°
2026-05-06 16:31 40.20748 19.70071 22833 ft 388 kts 164°
2026-05-06 16:31 40.18303 19.71220 22393 ft 385 kts 164°
2026-05-06 16:31 40.15852 19.72371 21953 ft 383 kts 164°
2026-05-06 16:32 40.13304 19.73567 21496 ft 380 kts 164°
2026-05-06 16:32 40.10872 19.74707 21057 ft 378 kts 163°
2026-05-06 16:32 40.08496 19.75821 20625 ft 376 kts 164°
2026-05-06 16:32 40.06406 19.76570 20129 ft 372 kts 176°
2026-05-06 16:33 40.03500 19.76619 19129 ft 378 kts 187°
2026-05-06 16:33 40.01036 19.76379 18373 ft 382 kts 188°
2026-05-06 16:33 39.99219 19.76201 17953 ft 372 kts 187°
2026-05-06 16:34 39.93815 19.75792 15587 ft 367 kts 185°
2026-05-06 16:34 39.91464 19.75659 14625 ft 361 kts 185°
2026-05-06 16:34 39.88977 19.75534 13618 ft 354 kts 185°
2026-05-06 16:34 39.86758 19.75430 12788 ft 348 kts 184°
2026-05-06 16:35 39.84312 19.75321 12332 ft 343 kts 184°
2026-05-06 16:35 39.82531 19.75243 12020 ft 339 kts 184°
2026-05-06 16:35 39.79429 19.75109 11465 ft 334 kts 184°
2026-05-06 16:35 39.77907 19.75043 11193 ft 331 kts 184°
2026-05-06 16:36 39.75374 19.74933 10745 ft 326 kts 183°
2026-05-06 16:36 39.73272 19.74843 10390 ft 321 kts 183°
2026-05-06 16:36 39.71416 19.74764 10283 ft 309 kts 183°
2026-05-06 16:36 39.69188 19.74672 10169 ft 294 kts 183°
2026-05-06 16:37 39.67128 19.74586 10037 ft 282 kts 183°
2026-05-06 16:37 39.65463 19.74514 9729 ft 281 kts 183°
2026-05-06 16:37 39.63275 19.74419 9331 ft 278 kts 182°
2026-05-06 16:37 39.61352 19.74336 8998 ft 275 kts 182°
2026-05-06 16:38 39.59418 19.74253 8679 ft 272 kts 182°
2026-05-06 16:38 39.57515 19.74173 8358 ft 269 kts 182°
2026-05-06 16:38 39.55641 19.74094 8031 ft 267 kts 182°
2026-05-06 16:38 39.53773 19.74015 7700 ft 265 kts 182°
2026-05-06 16:39 39.51919 19.73937 7367 ft 263 kts 182°
2026-05-06 16:39 39.50085 19.73859 7037 ft 261 kts 182°
2026-05-06 16:39 39.48251 19.73780 6707 ft 260 kts 182°
2026-05-06 16:39 39.46449 19.73703 6380 ft 258 kts 182°
2026-05-06 16:40 39.44663 19.73627 6059 ft 257 kts 182°
2026-05-06 16:40 39.42865 19.73635 5713 ft 256 kts 171°
2026-05-06 16:40 39.41213 19.74507 5359 ft 256 kts 143°
2026-05-06 16:40 39.40079 19.76284 4995 ft 258 kts 115°
2026-05-06 16:41 39.39714 19.78540 4651 ft 259 kts 92°
2026-05-06 16:41 39.39744 19.80879 4326 ft 258 kts 89°
2026-05-06 16:41 39.39811 19.83185 4009 ft 250 kts 89°
2026-05-06 16:41 39.39867 19.85396 3697 ft 241 kts 89°
2026-05-06 16:42 39.40006 19.87530 3396 ft 238 kts 82°
2026-05-06 16:42 39.40355 19.89568 3325 ft 225 kts 75°
2026-05-06 16:42 39.40788 19.91487 3304 ft 212 kts 74°
2026-05-06 16:42 39.41202 19.93261 3273 ft 200 kts 74°
2026-05-06 16:43 39.41597 19.94961 3252 ft 199 kts 75°
2026-05-06 16:43 39.42117 19.96622 3157 ft 200 kts 50°
2026-05-06 16:43 39.43277 19.97510 2983 ft 198 kts
2026-05-06 16:43 39.44632 19.97192 2894 ft 197 kts 340°
2026-05-06 16:44 39.45915 19.96620 2794 ft 192 kts 339°
2026-05-06 16:44 39.47157 19.96087 2559 ft 187 kts 340°
2026-05-06 16:44 39.48399 19.95581 2235 ft 185 kts 341°
2026-05-06 16:44 39.49601 19.95113 1954 ft 175 kts 342°
2026-05-06 16:45 39.51085 19.94548 1684 ft 158 kts 342°
2026-05-06 16:45 39.51769 19.94267 1520 ft 150 kts 340°
2026-05-06 16:45 39.52729 19.93843 1286 ft 143 kts 339°
2026-05-06 16:45 39.53660 19.93412 1091 ft 140 kts 338°
2026-05-06 16:46 39.54577 19.92983 948 ft 140 kts 338°
2026-05-06 16:46 39.55502 19.92570 805 ft 141 kts 340°
2026-05-06 16:46 39.56462 19.92209 627 ft 142 kts 343°
2026-05-06 16:46 39.57423 19.91928 423 ft 142 kts 347°
2026-05-06 16:47 39.58395 19.91679 217 ft 140 kts 347°
2026-05-06 16:47 39.59344 19.91437 27 ft 137 kts 347°
2026-05-06 16:47 39.60187 19.91216 13 ft 101 kts 349°
2026-05-06 16:47 39.60739 19.91069 17 ft 60 kts 351°
2026-05-06 16:48 39.61000 19.91010 18 ft 16 kts
2026-05-06 16:48 39.61055 19.91084 18 ft 6 kts 59°
2026-05-06 16:48 39.61031 19.91126 19 ft 7 kts 168°
2026-05-06 16:48 39.60977 19.91140 19 ft 8 kts 169°
2026-05-06 16:49 39.60916 19.91159 19 ft 9 kts 153°
2026-05-06 16:49 39.60870 19.91221 19 ft 9 kts 143°
2026-05-06 16:49 39.60826 19.91250 19 ft 5 kts 107°
2026-05-06 16:49 39.60834 19.91302 19 ft 6 kts 78°
2026-05-06 16:50 39.60837 19.91319 19 ft 0 kts 79°